MONITOR-3 (RS58S)

Last updated on Mon Sep 15 2025 00:03:09 GMT+0000 (Coordinated Universal Time)

1 57180U 23091Q 25257.26824850 .00006235 00000+0 28647-3 0 9997 2 57180 97.5508 314.4065 0013057 355.0314 5.0790 15.20673028122254
UTC large
Height (km)
Speed (km/s)
/
Latitude / Longitude
Inclination (degrees)
Orbital Period (minutes)
Azimuth
Elevation
Range (km)
Doppler Factor

Next 0 passes for location: London (51.5072 / 0.1276)

Sorry there are no passes over London.